AXB5501 VOBL-VOML

Flight info

Callsign AXB5501
Flight time N/A
Altitude 28000
Route PEXEG8A PEXEG W81 MML
Aircraft B38M/M-SDE1FGHILORVWXY/HB1

Departure

Time 2026-05-06 18:30
Airport Kempegowda International Airport Bengaluru (VOBL)

Arrival

Time N/A
Airport Mangaluru International Airport (VOML)
Time Latitude Longitude Altitude Speed Heading
2026-05-06 17:58 13.20175 77.70797 3014 ft 0 kts 180°
2026-05-06 18:16 13.20185 77.70797 3014 ft 3 kts 180°
2026-05-06 18:16 13.20204 77.70797 3014 ft 2 kts 180°
2026-05-06 18:16 13.20221 77.70799 3020 ft 3 kts 197°
2026-05-06 18:17 13.20237 77.70808 3020 ft 3 kts 235°
2026-05-06 18:17 13.20243 77.70825 3019 ft 3 kts 266°
2026-05-06 18:17 13.20243 77.70843 3014 ft 1 kts 270°
2026-05-06 18:17 13.20243 77.70848 3014 ft 0 kts 270°
2026-05-06 18:22 13.20243 77.70830 3018 ft 7 kts 270°
2026-05-06 18:22 13.20243 77.70747 3014 ft 17 kts 270°
2026-05-06 18:23 13.20243 77.70597 3014 ft 23 kts 270°
2026-05-06 18:23 13.20248 77.70430 3014 ft 24 kts 282°
2026-05-06 18:23 13.20325 77.70392 3016 ft 11 kts
2026-05-06 18:23 13.20403 77.70392 3014 ft 11 kts
2026-05-06 18:24 13.20487 77.70394 3014 ft 13 kts
2026-05-06 18:24 13.20533 77.70362 3014 ft 5 kts 277°
2026-05-06 18:24 13.20533 77.70326 3014 ft 6 kts 272°
2026-05-06 18:24 13.20535 77.70274 3014 ft 10 kts 272°
2026-05-06 18:25 13.20535 77.70179 3014 ft 17 kts 270°
2026-05-06 18:25 13.20534 77.70032 3014 ft 24 kts 270°
2026-05-06 18:25 13.20538 77.69839 3014 ft 28 kts 271°
2026-05-06 18:25 13.20539 77.69635 3014 ft 29 kts 270°
2026-05-06 18:26 13.20540 77.69426 3013 ft 30 kts 270°
2026-05-06 18:26 13.20541 77.69214 3013 ft 30 kts 270°
2026-05-06 18:26 13.20545 77.69007 3013 ft 27 kts 270°
2026-05-06 18:26 13.20546 77.68819 3013 ft 28 kts 270°
2026-05-06 18:27 13.20546 77.68719 3014 ft 11 kts 270°
2026-05-06 18:27 13.20548 77.68638 3014 ft 5 kts 279°
2026-05-06 18:27 13.20556 77.68626 3014 ft 2 kts 314°
2026-05-06 18:27 13.20574 77.68617 3014 ft 5 kts 343°
2026-05-06 18:28 13.20629 77.68615 3014 ft 11 kts
2026-05-06 18:28 13.20714 77.68631 3013 ft 12 kts 49°
2026-05-06 18:28 13.20722 77.68665 3013 ft 0 kts 90°
2026-05-06 18:29 13.20722 77.68666 3013 ft 1 kts 90°
2026-05-06 18:29 13.20723 77.68777 3014 ft 44 kts 89°
2026-05-06 18:29 13.20716 77.69301 3014 ft 102 kts 90°
2026-05-06 18:29 13.20706 77.70210 3014 ft 151 kts 91°
2026-05-06 18:30 13.20718 77.71417 3187 ft 178 kts 90°
2026-05-06 18:30 13.20724 77.72693 3863 ft 178 kts 89°
2026-05-06 18:30 13.20796 77.73934 4612 ft 175 kts 89°
2026-05-06 18:30 13.20896 77.75162 5330 ft 169 kts 87°
2026-05-06 18:31 13.20998 77.76345 6167 ft 166 kts 84°
2026-05-06 18:31 13.21458 77.77564 6164 ft 218 kts 51°
2026-05-06 18:31 13.22814 77.78356 5952 ft 239 kts 11°
2026-05-06 18:31 13.24532 77.78351 5958 ft 254 kts 359°
2026-05-06 18:32 13.26313 77.78214 5963 ft 263 kts 359°